Regional Weather Roundup
Issued by NWS

Home | Current Version | Previous Version | Text Only | Print | Product List | Glossary Off
Versions: 1 2 3 4 5 6 7 8 9 10 11 12 13 14 15 16 17 18 19 20 21 22 23 24 25 26 27 28 29 30 31 32 33 34 35 36 37 38 39 40 41 42 43 44 45 46 47 48 49 50

000
ASUS43 KBIS 230510
RWRND

NORTH DAKOTA REGIONAL WEATHER ROUNDUP
NATIONAL WEATHER SERVICE BISMARCK ND
1200 AM CDT TUE SEP 23 2014

NOTE: "FAIR" INDICATES FEW OR NO CLOUDS BELOW 12,000 FEET WITH NO
SIGNIFICANT WEATHER AND/OR OBSTRUCTIONS TO VISIBILITY.


NDZ001>003-009>011-017-230600-
NORTHWEST NORTH DAKOTA

CITY           SKY/WX    TMP DP  RH WIND       PRES   REMARKS
WILLISTON      CLEAR     61  49  64 CALM      29.87F
MINOT          CLEAR     55  47  74 E7        29.91F
MINOT AFB      CLEAR     54  50  85 SE5       29.90F
$$

NDZ018>021-031>035-040>046-230600-
SOUTHWEST NORTH DAKOTA

CITY           SKY/WX    TMP DP  RH WIND       PRES   REMARKS
BISMARCK       CLEAR     60  50  69 SE9       29.94S
DICKINSON      CLEAR     59  49  69 SE13      29.88F
GARRISON         N/A     58  51  78 SE6       29.92F
HETTINGER ARPT PTCLDY    59  51  75 SE8       29.91S
$$

NDZ004>008-012>016-024-026-027-054-230600-
NORTHEAST NORTH DAKOTA

CITY           SKY/WX    TMP DP  RH WIND       PRES   REMARKS
GRAND FORKS    CLEAR     52  48  86 S6        30.03S
GRND FRKS AFB  CLEAR     55  49  80 S8        30.03S
DEVILS LAKE    CLEAR     57  48  72 SE9       29.98F
$$

NDZ022-023-025-028>030-036>039-047>053-230600-
SOUTHEAST NORTH DAKOTA

CITY           SKY/WX    TMP DP  RH WIND       PRES   REMARKS
FARGO          CLEAR     61  48  62 SE10      30.05F
JAMESTOWN      CLEAR     59  49  69 S12       30.00F
$$




USA.gov is the U.S. government's official web portal to all federal, state and local government web resources and services.